Taupo (NZAP)

Aerodrome — Elev 1335
New Zealand
S038.44.22.999 E176.05.03.998
Loading chart...

Current Weather

NZAP 270500Z 02007KT 25KM BKN027 11/07 Q1004 RMK ALT VATSIM USE ONLY

Published 1 hours 37 minutes ago

Airport Activity

Loading chart...
Loading chart...

Positions

CallsignRadio Name / Freq / Voice Room / TypeFrequencyVoice RoomType
NZCH-B_CTR Bay Approach
119.500
nzch-b_ctr
119.500nzch-b_ctr

Charts